FW1564 Weather Reports


time (UTC)temp
C
wind
direction
speed
KPH
gust
KPH
rain 1hr
cm
rain 24hr
cm
rain mn
cm
humidity
%
barometer
mb
20260902033710 18 351 6.4 11.3 0.00 0.00 0.00 81 1019.9
20260902032709 18 332 6.4 9.7 0.00 0.00 0.00 85 1020.2
20260902031711 18 338 3.2 9.7 0.00 0.00 0.00 85 1020.1
20260902030711 18 342 3.2 6.4 0.00 0.00 0.00 83 1020.2
20260902025711 18 333 4.8 6.4 0.00 0.00 0.00 82 1020.4
20260902024710 18 354 3.2 6.4 0.00 0.00 0.00 82 1020.5
20260902023710 18 5 4.8 6.4 0.00 0.00 0.00 80 1020.7
20260902022710 17 345 6.4 9.7 0.00 0.00 0.00 80 1020.8
20260902021710 18 339 3.2 6.4 0.00 0.00 0.00 83 1020.6
20260902020711 18 338 4.8 9.7 0.00 0.00 0.00 83 1020.9
20260902015710 18 334 6.4 11.3 0.00 0.00 0.00 80 1021.0
20260902014710 18 320 6.4 11.3 0.00 0.00 0.00 81 1020.8
20260902014628 18 338 6.4 9.7 0.00 0.00 0.00 84 1020.9
20260902012710 18 350 1.6 11.3 0.00 0.00 0.00 84 1021.1
20260902012107 18 344 6.4 9.7 0.00 0.00 0.00 84 1021.2
20260902011737 18 341 3.2 6.4 0.00 0.00 0.00 82 1021.3
20260902005710 18 4 3.2 6.4 0.00 0.00 0.00 82 1021.3
20260902004710 18 334 3.2 6.4 0.00 0.00 0.00 83 1021.3
20260902004155 18 350 3.2 6.4 0.00 0.00 0.00 82 1021.6
20260902002711 18 346 3.2 6.4 0.00 0.00 0.00 81 1021.5
20260902001711 18 339 6.4 11.3 0.00 0.00 0.00 79 1021.3
20260902000711 18 341 6.4 12.9 0.00 0.00 0.00 81 1021.3
20260901235710 18 351 4.8 9.7 0.00 0.00 0.00 83 1021.6
20260901234711 18 324 4.8 0.0 0.00 0.00 0.00 84 1021.6
20260901233410 19 346 3.2 9.7 0.00 0.00 0.00 84 1021.7
20260901232409 19 342 4.8 6.4 0.00 0.00 0.00 84 1021.9
20260901231409 19 340 6.4 9.7 0.00 0.00 0.00 86 1021.8
20260901230413 19 349 3.2 6.4 0.00 0.00 0.00 86 1022.0
20260901225849 19 341 1.6 3.2 0.00 0.00 0.00 87 1022.2
20260901224408 20 22 0.0 1.6 0.00 0.00 0.00 89 1022.3
20260901223408 20 147 1.6 3.2 0.00 0.00 0.00 89 1022.2
20260901222411 20 145 1.6 3.2 0.00 0.00 0.00 87 1022.3
20260901221409 20 5 0.0 0.0 0.00 0.00 0.00 85 1022.3
20260901220409 20 22 1.6 3.2 0.00 0.00 0.00 84 1022.1
20260901215854 20 17 1.6 1.6 0.00 0.00 0.00 85 1022.3
20260901214409 20 315 1.6 3.2 0.00 0.00 0.00 86 1022.2
20260901213904 20 0 1.6 3.2 0.00 0.00 0.00 85 1022.3
20260901212409 20 346 1.6 4.8 0.00 0.00 0.00 86 1022.2
20260901211409 20 191 0.0 3.2 0.00 0.00 0.00 88 1022.0
20260901210408 20 350 1.6 3.2 0.00 0.00 0.00 87 1021.9
20260901205409 20 355 1.6 3.2 0.00 0.00 0.00 88 1021.9
20260901204852 20 356 0.0 1.6 0.00 0.00 0.00 89 1021.8
20260901203409 20 345 1.6 3.2 0.00 0.00 0.00 90 1021.7
20260901202409 20 27 0.0 3.2 0.00 0.00 0.00 91 1021.6
20260901201410 20 355 0.0 3.2 0.00 0.00 0.00 91 1021.0
20260901200851 20 332 0.0 1.6 0.00 0.00 0.00 90 1021.0
20260901195409 20 140 0.0 1.6 0.00 0.00 0.00 90 1021.0
20260901194410 20 194 0.0 1.6 0.00 0.00 0.00 90 1021.2
20260901193409 20 197 0.0 3.2 0.00 0.00 0.00 90 1021.0
20260901192849 21 158 1.6 3.2 0.00 0.00 0.00 89 1020.9
20260901191409 21 165 0.0 4.8 0.00 0.00 0.00 89 1020.9
20260901190845 21 165 1.6 6.4 0.00 0.00 0.00 88 1021.2
20260901185849 21 146 1.6 3.2 0.00 0.00 0.00 87 1021.0
20260901184410 21 127 3.2 4.8 0.00 0.00 0.00 86 1021.0
20260901183409 21 144 3.2 6.4 0.00 0.00 0.00 86 1021.0
20260901182409 22 144 3.2 3.2 0.00 0.00 0.00 85 1020.8
20260901181409 22 138 3.2 4.8 0.00 0.00 0.00 85 1021.0
20260901180410 22 171 1.6 4.8 0.00 0.00 0.00 85 1021.2
20260901175408 22 153 3.2 9.7 0.00 0.00 0.00 85 1021.3
20260901174409 22 108 3.2 6.4 0.00 0.00 0.00 85 1021.1
20260901173357 22 179 0.0 9.7 0.00 0.00 0.00 85 1021.5
20260901172351 22 117 1.6 9.7 0.00 0.00 0.00 85 1021.2
20260901171351 22 132 6.4 9.7 0.00 0.00 0.00 84 1021.1
20260901170351 22 113 4.8 9.7 0.00 0.00 0.00 84 1021.3
20260901165349 22 119 0.0 6.4 0.00 0.00 0.00 85 1021.2
20260901164350 22 182 4.8 11.3 0.00 0.00 0.00 84 1021.3
20260901163350 22 124 3.2 9.7 0.00 0.00 0.00 84 1021.2
20260901162350 22 192 3.2 9.7 0.00 0.00 0.00 85 1021.3
20260901161351 22 163 4.8 12.9 0.00 0.00 0.00 85 1021.5
20260901160350 22 194 3.2 6.4 0.00 0.00 0.00 84 1021.5
20260901155350 22 147 3.2 6.4 0.00 0.00 0.00 85 1021.3
20260901154349 22 134 3.2 9.7 0.00 0.00 0.00 84 1021.7
20260901153350 22 161 3.2 11.3 0.00 0.00 0.00 84 1021.6
20260901152844 22 199 3.2 4.8 0.00 0.00 0.00 83 1022.0
20260901151350 22 146 6.4 12.9 0.00 0.00 0.00 83 1022.1
20260901150346 23 292 1.6 12.9 0.00 0.00 0.00 81 1021.9
20260901150304 24 186 6.4 14.5 0.00 0.00 0.00 79 1022.2
20260901144346 24 164 8.0 11.3 0.00 0.00 0.00 79 1022.1
20260901143346 23 122 4.8 11.3 0.00 0.00 0.00 79 1022.0
20260901142346 23 145 4.8 11.3 0.00 0.00 0.00 80 1022.2
20260901141346 23 276 0.0 16.1 0.00 0.00 0.00 81 1022.2
20260901140346 23 135 9.7 14.5 0.00 0.00 0.00 81 1022.4
20260901135346 23 209 3.2 11.3 0.00 0.00 0.00 79 1022.3
20260901134346 24 178 4.8 14.5 0.00 0.00 0.00 78 1022.3
20260901133345 24 167 4.8 11.3 0.00 0.00 0.00 78 1022.4
20260901132346 24 104 4.8 14.5 0.00 0.00 0.00 78 1022.5
20260901131343 23 163 6.4 11.3 0.00 0.00 0.00 79 1022.4
20260901130342 23 129 9.7 14.5 0.00 0.00 0.00 79 1022.5
20260901125343 25 90 6.4 12.9 0.00 0.00 0.00 76 1022.4
20260901124343 23 183 6.4 16.1 0.00 0.00 0.00 79 1022.7
20260901123336 25 167 6.4 14.5 0.00 0.00 0.00 78 1022.5
20260901122336 23 102 3.2 11.3 0.00 0.00 0.00 80 1022.5
20260901121337 23 135 8.0 14.5 0.00 0.00 0.00 80 1022.4
20260901120824 23 131 6.4 11.3 0.00 0.00 0.00 81 1022.7
20260901115822 25 155 3.2 14.5 0.00 0.00 0.00 78 1022.7
20260901114336 23 137 3.2 14.5 0.00 0.00 0.00 78 1022.8
20260901113336 23 141 3.2 11.3 0.00 0.00 0.00 79 1022.7
20260901112336 23 152 6.4 9.7 0.00 0.00 0.00 80 1022.8
20260901111336 24 161 4.8 12.9 0.00 0.00 0.00 77 1022.9
20260901110337 24 162 4.8 12.9 0.00 0.00 0.00 77 1022.7
20260901105337 24 199 4.8 12.9 0.00 0.00 0.00 77 1022.7
20260901105329 24 115 4.8 14.5 0.00 0.00 0.00 77 1022.5
20260901103336 24 163 1.6 11.3 0.00 0.00 0.00 75 1022.6
20260901102336 24 136 9.7 12.9 0.00 0.00 0.00 76 1022.5
20260901101336 23 121 1.6 11.3 0.00 0.00 0.00 76 1022.3
20260901100335 23 124 1.6 9.7 0.00 0.00 0.00 78 1022.2
20260901095320 23 169 6.4 11.3 0.00 0.00 0.00 77 1022.2
20260901094319 23 175 6.4 6.4 0.00 0.00 0.00 77 1022.2
20260901093319 23 115 3.2 6.4 0.00 0.00 0.00 76 1022.0
20260901092757 22 79 0.0 3.2 0.00 0.00 0.00 73 1022.0
20260901091320 22 4 1.6 3.2 0.00 0.00 0.00 72 1021.9
20260901090305 22 357 0.0 3.2 0.00 0.00 0.00 70 1022.0
20260901085738 22 140 1.6 3.2 0.00 0.00 0.00 69 1021.8
20260901084748 21 41 1.6 4.8 0.00 0.00 0.00 69 1022.0
20260901083748 21 16 0.0 6.4 0.00 0.00 0.00 64 1022.0
20260901082306 20 10 3.2 4.8 0.00 0.00 0.00 62 1021.9
20260901081306 20 7 3.2 9.7 0.00 0.00 0.00 64 1022.0
20260901080735 20 351 6.4 9.7 0.00 0.00 0.00 63 1022.0
20260901075307 20 10 4.8 6.4 0.00 0.00 0.00 64 1021.9
20260901074304 19 312 3.2 9.7 0.00 0.00 0.00 64 1022.0
20260901073305 19 340 4.8 6.4 0.00 0.00 0.00 63 1021.9
20260901072258 18 328 4.8 6.4 0.00 0.00 0.00 65 1021.7
20260901071258 18 344 1.6 4.8 0.00 0.00 0.00 64 1021.7
20260901070259 18 330 4.8 4.8 0.00 0.00 0.00 63 1021.7
20260901065258 18 340 3.2 9.7 0.00 0.00 0.00 62 1021.2
20260901064258 19 340 3.2 4.8 0.00 0.00 0.00 66 1021.1
20260901063259 18 334 1.6 4.8 0.00 0.00 0.00 67 1021.2
20260901062258 18 349 3.2 3.2 0.00 0.00 0.00 64 1021.1
20260901061259 18 334 1.6 6.4 0.00 0.00 0.00 63 1020.8
20260901060743 18 345 1.6 3.2 0.00 0.00 0.00 65 1020.7
20260901055256 18 338 3.2 4.8 0.00 0.00 0.00 66 1020.9
20260901053256 18 346 1.6 3.2 0.00 0.00 0.00 65 1020.5
20260901052255 18 316 1.6 3.2 0.00 0.00 0.00 64 1020.7
20260901051743 19 313 0.0 3.2 0.00 0.00 0.00 63 1020.8
20260901050308 19 332 0.0 4.8 0.00 0.00 0.00 62 1020.9
20260901045730 18 4 3.2 4.8 0.00 0.00 0.00 66 1020.8
20260901044251 18 351 3.2 4.8 0.00 0.00 0.00 63 1020.8
20260901043725 19 342 3.2 4.8 0.00 0.00 0.00 61 1020.7
20260901042250 19 339 1.6 6.4 0.00 0.00 0.00 62 1020.9
20260901041252 18 352 3.2 4.8 0.00 0.00 0.00 63 1021.2
20260901040249 19 342 3.2 4.8 0.00 0.00 0.00 62 1021.1
20260901035250 18 332 1.6 4.8 0.00 0.00 0.00 64 1021.0